Home > Weather > Manaus > Past weeks

Flag for Brazil Past Weather in Manaus, Amazonas, Brazil — Yesterday and Last 2 Weeks

Now
77 °F

Clear.


Feels Like: 78 °F
Forecast: 75 / 89 °F
Wind: 3 mph from Southeast

Location: Manaus Aeroporto

Current Time: Jun 29, 2016 at 5:15:16 AM

Latest Report: Jun 29, 2016 at 4:00 AM


Visibility: 10 mi

Pressure: 29.89 "Hg

Humidity: 83%

Dew Point: 72 °F

Location of ManausLocation

Past Weather in Manaus — Graph

°F

Manaus Temperature Yesterday

Maximum temperature yesterday: 90 °F (at 1:00 PM)
Minimum temperature yesterday: 77 °F (at 4:00 AM)
Average temperature yesterday: 83 °F

High & Low Weather Summary for the Past Weeks

 TemperatureHumidityPressure
High90 °F (Jun 16, 3:00 PM)94% (Jun 14, 4:00 AM)30.21 "Hg (Jun 14, 4:00 AM)
Low72 °F (Jun 25, 1:00 AM)52% (Jun 18, 2:00 PM)29.71 "Hg (Jun 15, 6:00 AM)
Average81 °F76%29.94 "Hg
* Reported Jun 14 4:00 AM — Jun 29 4:00 AM, Manaus, Weather by CustomWeather, © 2016

Note: Actual official high and low records may vary slightly from our data, if they occured in-between our weather recording intervals... More about our weather records

Advertising

Manaus Weather History for the Previous 24 Hours

Scroll right to see more
 ConditionsComfort  
Time TempWeatherWind HumidityBarometerVisibility
4:00 AM
Wed, Jun 29
77 °FClear.3 mph83%29.89 "Hg10 mi
3:00 AM77 °FClear.3 mph83%29.89 "Hg10 mi
2:00 AM79 °FClear.3 mph79%29.92 "Hg10 mi
1:00 AM79 °FClear.3 mph79%29.95 "Hg10 mi
12:00 AM79 °FClear.3 mph79%29.95 "Hg10 mi
11:00 PM
Tue, Jun 28
81 °FClear.2 mph74%29.95 "Hg10 mi
10:00 PM81 °FClear.2 mph74%29.95 "Hg10 mi
9:00 PM81 °FClear.2 mph74%29.92 "Hg10 mi
8:00 PM82 °FClear.2 mph70%29.92 "Hg10 mi
7:00 PM84 °FPassing clouds.3 mph70%29.89 "HgN/A
6:00 PM86 °FPassing clouds.3 mph62%29.89 "HgN/A
5:00 PM88 °FPassing clouds.3 mph59%29.86 "HgN/A
4:00 PM90 °FScattered clouds.2 mph55%29.89 "HgN/A
3:00 PM90 °FScattered clouds.5 mph55%29.89 "HgN/A
2:00 PM86 °FScattered clouds.5 mph62%29.92 "HgN/A
1:00 PM90 °FScattered clouds.5 mph55%29.95 "HgN/A
12:00 PM86 °FScattered clouds.3 mph66%29.98 "HgN/A
11:00 AM86 °FPassing clouds.6 mph66%29.98 "HgN/A
10:00 AM82 °FPartly sunny.2 mph74%30.01 "HgN/A
9:00 AM82 °FPartly sunny.3 mph74%29.98 "HgN/A
8:00 AM81 °FScattered clouds.2 mph79%29.98 "HgN/A
7:00 AM79 °FScattered clouds.2 mph84%29.95 "HgN/A
6:00 AM77 °FPassing clouds.3 mph83%29.95 "HgN/A
5:00 AM79 °FPassing clouds.2 mph84%29.95 "HgN/A
Weather by CustomWeather, © 2016

See weather overviewHow to use our weather pages